Location: Aubervilles
(48.9167°N, 2.3833°E)
Time: 21:46:04
(UTC+00:00)

CZ-4C R/B - Pass Details

Date: 03 February 2023
Orbit: 456 x 613 km, 98.1° (Epoch: 21 March)

Event Time Altitude Azimuth Distance (km) Brightness Sun altitude
Rises 18:09:14 0° 14° (NNE) 2,721 6.6 -13.1°
Reaches altitude 10° 18:11:25 10° 16° (NNE) 1,795 5.7 -13.5°
Maximum altitude 18:15:17 81° 103° (ESE) 526 3.1 -14.1°
Drops below altitude 10° 18:18:55 10° 192° (SSW) 1,689 6.1 -14.7°
Sets 18:20:55 0° 193° (SSW) 2,543 7.0 -15.0°
